Weather History for Newburgh, NY

Change the Weather History Date:

Wednesday, April 30, 2014

  Actual Average Record
Temperature  
Mean Temperature 44 °F -  
Max Temperature 48 °F 63 °F 88 °F (1974)
Min Temperature 39 °F 42 °F 32 °F (2001)
Degree Days  
Heating Degree Days 22    
Moisture  
Dew Point 42 °F    
Average Humidity 96    
Maximum Humidity 100    
Minimum Humidity 87    
Precipitation  
Precipitation 0.00 in - - ()
Sea Level Pressure  
Sea Level Pressure 30.28 in    
Wind  
Wind Speed 13 mph (East)    
Max Wind Speed 18 mph    
Max Gust Speed 29 mph    
Visibility 4 miles    
Events Rain    
Averages and records for this station are not official NWS values.
T = Trace of Precipitation, MM = Missing Value Source: NWS Daily Summary

Daily Weather History Graph

Daily Weather History Graph

Search for Another Location

Airport:

Trip Planner

Search our weather history database for the weather conditions in past years. The results will help you decide how hot, cold, wet, or windy it might be!

Date:

Astronomy

Apr. 30, 2014 Rise Set
Actual Time 5:54 AM EDT 7:53 PM EDT
Civil Twilight 5:24 AM EDT 8:23 PM EDT
Nautical Twilight 4:48 AM EDT 9:00 PM EDT
Astronomical Twilight 4:08 AM EDT 9:40 PM EDT
Moon 6:53 AM EDT 9:30 PM EDT
Length of Visible Light 14h 58m
Length of Day
13h 58m
New Moon, 2% of the Moon is Illuminated
Apr 30
New Moon
May 6
First Quarter
May 14
Full
May 21
Last Quarter
May 28
New

Hourly Weather History & Observations

Time (EDT) Temp. Windchill Dew Point Humidity Pressure Visibility Wind Dir Wind Speed Gust Speed Precip Events Conditions
12:45 AM 41.0 °F 33.5 °F 39.2 °F 93% 30.43 in 6.0 mi SE 13.8 mph - N/A Rain Light Rain
1:45 AM 41.0 °F 33.5 °F 37.4 °F 87% 30.43 in 6.0 mi SE 13.8 mph - N/A Rain Light Rain
2:45 AM 41.0 °F 33.5 °F 37.4 °F 87% 30.41 in 6.0 mi East 13.8 mph - N/A Rain Light Rain
3:45 AM 39.2 °F 32.0 °F 39.2 °F 100% 30.39 in 6.0 mi East 11.5 mph - N/A Rain Light Rain
4:45 AM 39.2 °F 33.0 °F 37.4 °F 93% 30.40 in 6.0 mi East 9.2 mph - N/A Rain Light Rain
5:45 AM 39.2 °F 31.2 °F 37.4 °F 93% 30.38 in 10.0 mi East 13.8 mph - N/A Rain Light Rain
6:45 AM 39.2 °F 31.2 °F 37.4 °F 93% 30.37 in 5.0 mi East 13.8 mph - N/A Rain Light Rain
7:45 AM 41.0 °F 33.5 °F 39.2 °F 93% 30.37 in 5.0 mi East 13.8 mph - N/A Rain Light Rain
8:45 AM 41.0 °F 33.5 °F 39.2 °F 93% 30.37 in 3.0 mi East 13.8 mph - N/A Rain Light Rain
9:24 AM 41.0 °F 33.5 °F 39.2 °F 93% 30.37 in 2.0 mi East 13.8 mph - N/A Rain Light Rain
9:45 AM 41.0 °F 33.5 °F 39.2 °F 93% 30.37 in 2.0 mi East 13.8 mph - N/A Rain Light Rain
10:45 AM 41.0 °F 35.2 °F 41.0 °F 100% 30.36 in 2.0 mi East 9.2 mph - N/A Rain Light Rain
11:45 AM 41.0 °F 34.3 °F 41.0 °F 100% 30.34 in 2.0 mi East 11.5 mph - N/A Rain Light Rain
12:45 PM 42.8 °F 36.6 °F 41.0 °F 93% 30.31 in 2.0 mi East 11.5 mph - N/A Rain Light Rain
1:45 PM 42.8 °F 36.6 °F 42.8 °F 100% 30.29 in 2.0 mi East 11.5 mph - N/A Rain Light Rain
2:45 PM 44.6 °F 39.7 °F 44.6 °F 100% 30.25 in 2.0 mi East 9.2 mph - N/A Rain Light Rain
3:45 PM 44.6 °F 39.7 °F 44.6 °F 100% 30.23 in 2.0 mi East 9.2 mph - N/A Rain Light Rain
4:45 PM 44.6 °F 38.8 °F 44.6 °F 100% 30.19 in 2.0 mi East 11.5 mph - N/A Rain Light Rain
6:45 PM 46.4 °F 41.1 °F 44.6 °F 93% 30.16 in 5.0 mi East 11.5 mph - N/A Rain Light Rain
7:45 PM 44.6 °F 41.4 °F 44.6 °F 100% 30.14 in 3.0 mi ESE 5.8 mph - N/A Rain Light Rain
8:45 PM 46.4 °F 41.1 °F 44.6 °F 93% 30.11 in 4.0 mi ESE 11.5 mph 23.0 mph N/A Rain Light Rain
9:45 PM 48.2 °F - 48.2 °F 100% 30.10 in 4.0 mi ESE 17.3 mph 28.8 mph N/A Rain Rain
10:45 PM 48.2 °F - 48.2 °F 100% 30.05 in 3.0 mi East 18.4 mph - N/A Rain Rain
11:45 PM 48.2 °F - 48.2 °F 100% 30.00 in 3.0 mi East 18.4 mph - N/A Rain Rain